This is the latest recevied weather packets stored in our database for station/object W5CRT. If no packets are shown the sender has not sent any weather packets the latest 10 day(s).
| Time | Temp. | Humidity | Pressure | Rain* | Wind** | Luminosity | Snow |
|---|---|---|---|---|---|---|---|
| 1777597674 | 16.11° C | 78% | 1012.4 hPa | 0 mm | - | 1 W/m² | - |
| 1777597370 | 16.11° C | 78% | 1012.4 hPa | 0 mm | - | 1 W/m² | - |
| 1777597065 | 16.11° C | 77% | 1012.6 hPa | 0 mm | - | 1 W/m² | - |
| 1777596762 | 16.11° C | 77% | 1012.5 hPa | 0 mm | - | 2 W/m² | - |
| 1777596458 | 16.11° C | 76% | 1012.8 hPa | 0 mm | - | 2 W/m² | - |
| 1777596155 | 16.11° C | 76% | 1012.5 hPa | 0 mm | - | 3 W/m² | - |
| 1777595852 | 16.11° C | 75% | 1012.4 hPa | 0 mm | - | 5 W/m² | - |
| 1777595547 | 16.11° C | 76% | 1012.5 hPa | 0 mm | - | 5 W/m² | - |
| 1777595243 | 16.11° C | 75% | 1012.4 hPa | 0 mm | - | 6 W/m² | - |
| 1777594939 | 16.67° C | 76% | 1012.2 hPa | 0 mm | - | 7 W/m² | - |
| 1777594636 | 16.67° C | 75% | 1011.6 hPa | 0 mm | - | 9 W/m² | - |
| 1777594333 | 16.67° C | 76% | 1011.2 hPa | 0 mm | - | 21 W/m² | - |
| 1777594029 | 16.67° C | 75% | 1011.4 hPa | 0 mm | - | 24 W/m² | - |
| 1777593724 | 16.67° C | 75% | 1011.3 hPa | 0 mm | - | 26 W/m² | - |
| 1777593421 | 16.67° C | 74% | 1011.5 hPa | 0 mm | - | 37 W/m² | - |
| 1777593119 | 16.67° C | 74% | 1011.3 hPa | 0 mm | - | 46 W/m² | - |
| 1777592819 | 16.67° C | 75% | 1011.5 hPa | 0 mm | - | 74 W/m² | - |
| 1777592515 | 16.67° C | 75% | 1011.5 hPa | 0 mm | - | 67 W/m² | - |
| 1777592210 | 16.67° C | 75% | 1011.6 hPa | 0 mm | - | 63 W/m² | - |
| 1777591907 | 16.67° C | 75% | 1011.8 hPa | 0 mm | - | 46 W/m² | - |
| 1777591604 | 16.67° C | 74% | 1011.5 hPa | 0 mm | - | 76 W/m² | - |
| 1777591300 | 16.67° C | 75% | 1011.4 hPa | 0 mm | - | 96 W/m² | - |
| 1777590996 | 16.67° C | 74% | 1011.3 hPa | 0 mm | - | 68 W/m² | - |
| 1777590691 | 17.22° C | 75% | 1011.2 hPa | 0 mm | - | 100 W/m² | - |
| 1777590388 | 17.22° C | 74% | 1011.4 hPa | 0 mm | - | 107 W/m² | - |
* Rain latest hour (hover to see other rain measurements)
** Current wind speed in m/s (hover to see current wind gust speed)